TimeEDT,TemperatureF,Dew PointF,Humidity,Sea Level PressureIn,VisibilityMPH,Wind Direction,Wind SpeedMPH,Gust SpeedMPH,PrecipitationIn,Events,Conditions,WindDirDegrees,DateUTC
12:51 AM,73.9,66.0,76,29.91,10.0,South,5.8,-,N/A,,Clear,180,2013-05-21 04:51:00
1:51 AM,72.0,68.0,87,29.90,9.0,South,4.6,-,N/A,,Partly Cloudy,170,2013-05-21 05:51:00
2:51 AM,71.1,69.1,93,29.89,7.0,SSE,4.6,-,N/A,,Mostly Cloudy,160,2013-05-21 06:51:00
3:51 AM,71.1,69.1,93,29.89,6.0,South,4.6,-,N/A,,Mostly Cloudy,180,2013-05-21 07:51:00
4:51 AM,72.0,66.9,84,29.88,7.0,South,9.2,-,N/A,,Overcast,190,2013-05-21 08:51:00
5:51 AM,72.0,66.9,84,29.89,10.0,SSE,8.1,-,N/A,,Mostly Cloudy,160,2013-05-21 09:51:00
6:51 AM,72.0,66.0,81,29.89,7.0,South,8.1,-,N/A,,Overcast,170,2013-05-21 10:51:00
7:51 AM,72.0,66.0,81,29.89,8.0,South,9.2,-,N/A,,Mostly Cloudy,180,2013-05-21 11:51:00
8:51 AM,73.0,66.0,79,29.90,7.0,South,9.2,-,N/A,,Mostly Cloudy,190,2013-05-21 12:51:00
9:51 AM,75.0,66.9,76,29.93,10.0,SW,11.5,-,N/A,,Mostly Cloudy,220,2013-05-21 13:51:00
10:51 AM,79.0,66.0,64,29.91,10.0,SSW,11.5,18.4,N/A,,Mostly Cloudy,210,2013-05-21 14:51:00
11:51 AM,80.1,61.0,52,29.90,10.0,SSW,9.2,20.7,N/A,,Mostly Cloudy,210,2013-05-21 15:51:00
12:51 PM,82.0,63.0,52,29.87,10.0,SSW,13.8,21.9,N/A,,Mostly Cloudy,200,2013-05-21 16:51:00
1:51 PM,84.9,64.0,49,29.85,10.0,South,17.3,23.0,N/A,,Mostly Cloudy,180,2013-05-21 17:51:00
2:51 PM,86.0,60.1,41,29.84,10.0,SSW,17.3,24.2,N/A,,Mostly Cloudy,210,2013-05-21 18:51:00
3:51 PM,87.1,62.1,43,29.83,10.0,SSW,17.3,26.5,N/A,,Mostly Cloudy,210,2013-05-21 19:51:00
4:51 PM,88.0,57.9,36,29.81,10.0,WSW,19.6,26.5,N/A,,Mostly Cloudy,240,2013-05-21 20:51:00
5:51 PM,84.0,62.1,47,29.81,10.0,SSW,13.8,-,N/A,,Mostly Cloudy,210,2013-05-21 21:51:00
6:51 PM,84.0,59.0,43,29.80,10.0,WSW,15.0,-,N/A,,Mostly Cloudy,240,2013-05-21 22:51:00
7:51 PM,82.9,60.1,46,29.80,10.0,SW,13.8,-,N/A,,Mostly Cloudy,220,2013-05-21 23:51:00
8:51 PM,81.0,60.1,49,29.80,10.0,SSW,10.4,-,N/A,,Mostly Cloudy,210,2013-05-22 00:51:00
9:51 PM,79.0,63.0,58,29.80,10.0,SSW,8.1,-,N/A,,Mostly Cloudy,200,2013-05-22 01:51:00
10:51 PM,78.1,64.0,62,29.83,10.0,South,8.1,-,N/A,,Overcast,180,2013-05-22 02:51:00
11:51 PM,75.0,61.0,62,29.83,10.0,SSW,13.8,-,N/A,,Mostly Cloudy,200,2013-05-22 03:51:00